Location: Unspecified
(0.0000°N, 0.0000°E)
Time: 19:40:37
(UTC+00:00)

Hubble Space Telescope - Pass Details

Date: 02 March 2021
Orbit: 536 x 539 km, 28.5° (Epoch: 25 February)

Event Time Altitude Azimuth Distance (km) Brightness Sun altitude
Exits shadow 05:36:53 11° 279° (W) 1,704 2.6 -8.8°
Maximum altitude 05:40:32 39° 210° (SSW) 805 1.5 -7.8°
Drops below altitude 10° 05:44:25 10° 140° (SE) 1,785 4.2 -6.9°
Sets 05:46:47 0° 132° (SE) 2,676 5.3 -6.3°
